Погода Пильво

Погода Пильво : погода сейчас, прогноз погоды и архив. Всё, что Вы хотите узнать о погоде Пильво!

Хотите узнать прогноз погоды Пильво? Тогда Вам сюда: Погода Пильво

Поиск расширенной информации на нашем сайте:

Другие новости

Новости СМИ2

Главная страница сайта

Новости сайта

03.07.2017

Напоминаем, что на нашем специализированном сайте Метеоцентр.Азия вы можете получить высокодетализированные автоматические прогнозы погоды по пунктам России, СНГ и мира в авиационном формате (включающие направление и скорость ветра, видимость, явления погоды, количество и форму облачности, нижнюю и верхнюю границу облачности).


Погода Пильво - сегодня

Время (UTC), дата Ветер
(°,м/с) 
Видим.   Явления Облачность Т
(°С)
Тd
(°С)
f(%) Тe
(°С)
Pmin
(гПа)
dP
(гПа)
Po
(мм)
O2
(г/м3)
Тmin Tmax R s Состояние
почвы
15 18.04.18 тихо () {07}  н/о    н/о 
+1.4 +0.4 93 +1  1010.8  0.1  758  304           
18 18.04.18 120 (ЮВ) 2-3{03}  н/о    н/о 
+1.4 +0.5 94 +1  1011.1  0.4  758  304           
21 18.04.18 110 (В) 2-3{03}  20000 м    10/10 600 м кучево-дожд. 
[Cb cap]
+1.6 +0.8 94 +1  1011.8  0.6  758  304  +1.2    0.4    влажная 
12 19.04.18 100 (В) 1-1{03}  н/о    н/о 
+1.7 +0.2 90 +2  1012.1  -0.6  759  304           
15 19.04.18 170 (Ю) 2-5{05}  н/о    н/о 
+3.9 +1.3 83 +3  1011.6  -0.5  758  301           
18 19.04.18 150 (ЮВ) 2-3{07}  н/о    н/о 
+2.3 +0.7 89 +2  1010.6  -0.9  758  303           
21 19.04.18 110 (В) 1-2{06}  20000 м    10/10 600 м 
[Sc]
+2.2 +0.6 89 +3  1009.9  -0.7  757  302  +1.3        влажная 
12 20.04.18 130 (ЮВ) 3-4{05}  н/о    н/о 
+2.4 +0.3 86 +1  1009  0.4  756  302           
15 20.04.18 110 (В) 5-7{08}  н/о    н/о 
+3 +1.1 87 +1  1006.9  -2.2  755  301           
18 20.04.18 350 (С) 2-3{08}  н/о    н/о 
+2.1 +0.7 90 +1  1005.8  -1.1  754  301           
21 20.04.18 110 (В) 2-3{05}  10 км  слаб. ливневой дождь  10/10 600 м кучево-дожд. 
[Cb cap]
+2.2 +1.4 94 +2  1002.9  -2.9  752  300  +1.7      влажная 
12 21.04.18 120 (ЮВ) 1-2{04}  н/о    н/о 
-0.2 -1.1 94 1013.1  4.5  759  306           
15 21.04.18 330 (СЗ) 3-4{06}  н/о    н/о 
-0.3 -2.2 87 -2  1016.5  3.4  762  308           
18 21.04.18 120 (ЮВ) 2-3{04}  н/о    н/о 
-2.7 -3.5 94 -4  1018.3  1.8  763  311           
21 21.04.18 110 (В) 3-5{05}  20000 м    8/6 600 м средняя 
[Sc|Ac trans]
-2.6 -3.3 95 -5  1020.1  1.7  765  311  -3.4        замёрзшая 
12 22.04.18 130 (ЮВ) 1-2{04}  н/о    н/о 
-0.3 -1.7 90 1023.7  2.1  767  310           
15 22.04.18 150 (ЮВ) 1-2{03}  н/о    н/о 
+0.3 -0.7 93 +1  1023.8  0.1  767  309           
18 22.04.18 140 (ЮВ) 2-2{03}  н/о    н/о 
-0.4 -1.3 94 -1  1023.2  -0.6  767  310           
21 22.04.18 130 (ЮВ) 2-3{03}  20000 м    3/1 200 м средняя 
[St|Ac trans]
-1.5 -2.2 95 -2  1023.7  0.5  767  311  -2    0.7  равномерный
мокрый или
старый снег
100% 
12 23.04.18 120 (ЮВ) 2-4{05}  н/о    н/о 
+2.1 -3.7 65 +1  1021.3  0.1  766  307           
15 23.04.18 160 (Ю) 3-9{16}  н/о    н/о 
+6 -6.5 40 +5  1019.8  -1.5  764  302           
18 23.04.18 120 (ЮВ) 1-3{09}  н/о    н/о 
+1.1 -4.2 68 +2  1018.7  -1.1  764  307           
21 23.04.18 110 (В) 2-3{09}  20000 м    8/3 300 м средняя, верхняя 
[St|Ac lent|Ci fib]
+0.3 -3 78 1018.7  0.1  764  308  +0.2        влажная 
12 24.04.18 110 (В) 3-4{07}  н/о    н/о 
-0.1 -0.6 96 -2  1015.8  0.6  761  307           
15 24.04.18 120 (ЮВ) 4-6{07}  н/о    н/о 
-0.7 -1.4 95 -3  1014.3  -1.4  760  307           
Время (UTC), дата Ветер
(°,м/с) 
Видим.   Явления Облачность Т
(°С)
Тd
(°С)
f(%) Тe
(°С)
Pmin
(гПа)
dP
(гПа)
Po
(мм)
O2
(г/м3)
Тmin Tmax R s Состояние
почвы

Для получения пояснительной информации подведите курсор к названию столбца.

ПОГОДА Пильво - архив

Всё, что Вы хотите узнать о погоде Пильво - удобно и подробно!

Выберите нужную дату (начиная с 1 января 2015* года) и нажмите кнопку "Найти".
Будут отображены архивные сводки погоды по пункту Пильво, начиная с указанной даты.


Отображать данные в формате CSV (для использования в таблицах Excel)


Внимание! Наш архив погоды предназначен исключительно для личного некоммерческого использования в познавательных целях. Если Вам необходимы официальные справки о состоянии погоды (для производственных, юридических, коммерческих и т.п. целей), обращайтесь в органы Росгидромета.

*Примечание: данная дата относится к архиву по метеостанциям СССР (Россия, СНГ, Балтия).
Архив по метеостанциям Зарубежной Европы и Азии (кроме Китая) хранится 10 дней, по другим регионам земного шара (Китай, Африка, Америка, Австралия, Океания) - 1 день.

Пильво - район местоположения метеостанции


Название, широта, долгота, высота метеостанции:
Пильво 50.1°ш. 142.2°д. 4 м над ур. моря [Российская Федерация]

Дополнительная информация

В oтличие oт бoльшинства пoгoдных сайтoв мы публикуем пoдрoбную метеoинфoрмацию в детальнoм прoфессиoнальнoм фoрмате.

Характеристики температуры и влажнoсти вoздуха измеряются на высoте 2 м в тени вдали oт зданий и деревьев.
Скoрoсть ветра измеряется на высoте 10 м (на урoвне рoста челoвека скoрoсть ветра ниже в 1.5-2 раза). Если метеoстанция нахoдится в гoрoде или в лесу, тo скoрoсть ветра занижена на 2-4 м/с пo сравнению с oткрытым местoм. Скoрoсть ветра над акватoриями крупных рек и oзёр, а также на вершинах хoлмoв на 2-5 м/с выше, чем в oбычных услoвиях.
Атмoсфернoе давление в разных тoчках местнoсти мoжет значительнo oтличаться oт давления на метеoстанции, в зависимoсти oт услoвий рельефа (при пoдъёме на 10 м давление пoнижается примернo на 1 мм рт.ст.).